Domov               UVHVVR             MKGP            O straneh              
ZDRAVSTVENO VARSTVO RASTLIN
  MREŽA AGROMET. POSTAJ
 ► PROGNOSTIČNA OBVESTILA
AGROMETEOROLOŠKI PODATKI -
ARSO
OBVLADOVANJE TVEGANJ ZARADI
NEUGODNIH VREMENSKIH RAZMER
  ► NARAVNE NESREČE
  ► SUŠA/MOČA
  ► NAMAKANJE
  ► ŽLED (gozdarstvo)
KARTOGRAFSKI PRIKAZI
SPLETNE POVEZAVE
PROJEKTI IN PUBLIKACIJE

AGROMETEOROLOŠKA MREŽA: VREMENSKE POSTAJE IN FENOLOŠKA OPAZOVANJA

Pregled podatkov za lokacijo Bizeljsko, meteorološka postaja 38541

Pregled senzorjev na lokaciji

ID Ime Zadnja
vrednost
Datum
zadnje
spremembe
Tip
senzorja
2027 Temperatura 2 m (°C) 1,15 °C 20.1.2018 11:30 50YA
2028 Relativna vlaga 2 m (% RH) 92,89 % RH 20.1.2018 11:30 50YA
2029 Omočenost lista (U) 10 U 20.1.2018 11:30 A730WET
2030 Padavine (mm) 0 mm 20.1.2018 11:30 Rain-O-Matic

Pregled podatkov zadnjih 24 ur

Zap.
št.
Datum in čas Bizeljsko
Omočenost
lista
Padavine Relativna
vlaga
2
m
Temperatura
2
m
0 20.1.2018 11:30 10 0 92,89 1,15
1 20.1.2018 11:00 10 0 91,94 0,78
2 20.1.2018 10:30 10 0 85,98 2,25
3 20.1.2018 10:00 10 0 81,76 2,78
4 20.1.2018 09:30 10 0 85,23 1,83
5 20.1.2018 09:00 2 0,2 94,26 -0,29
6 20.1.2018 08:30 1 0 95,75 -2,12
7 20.1.2018 08:00 1 0 94,68 -2,86
8 20.1.2018 07:30 1 0 91,67 -1,29
9 20.1.2018 07:00 1 0 89,33 -0,37
10 20.1.2018 06:30 1 0 95,26 -0,95
11 20.1.2018 06:00 1 0 95,51 -1,32
12 20.1.2018 05:30 1 0 95,85 -0,9
13 20.1.2018 05:00 1 0 96,04 -0,78
14 20.1.2018 04:30 1 0 95,85 -0,83
15 20.1.2018 04:00 1 0 95,65 -0,56
16 20.1.2018 03:30 1 0 95,21 -0,81
17 20.1.2018 03:00 2 0 94,65 -0,42
18 20.1.2018 02:30 9 0 93,99 -0,05
19 20.1.2018 02:00 8 0 93,87 0,1
20 20.1.2018 01:30 10 0 91,09 0,54
21 20.1.2018 01:00 10 0 90,65 0,78
22 20.1.2018 00:30 10 0 92,8 0,54
23 20.1.2018 00:00 10 0 94,68 0,07
24 19.1.2018 23:30 10 0 94,82 -0,07
25 19.1.2018 23:00 10 0 95,04 -0,12
26 19.1.2018 22:30 10 0 94,9 -0,15
27 19.1.2018 22:00 10 0 93,65 0,29
28 19.1.2018 21:30 10 0 93,26 0,56
29 19.1.2018 21:00 10 0 93,09 0,66
30 19.1.2018 20:30 10 0 92,43 1,12
31 19.1.2018 20:00 10 0 91,36 1,51
32 19.1.2018 19:30 10 0 91,14 1,71
33 19.1.2018 19:00 10 0 93,04 1,51
34 19.1.2018 18:30 10 0 92,94 1,39
35 19.1.2018 18:00 10 0 93,24 1,34
36 19.1.2018 17:30 10 0 92,65 1,34
37 19.1.2018 17:00 7 0,6 90,96 1,47
38 19.1.2018 16:30 8 1 88,94 1,88
39 19.1.2018 16:00 5 0,8 90,23 1,81
40 19.1.2018 15:30 6 1,4 90,62 2,12
41 19.1.2018 15:00 4 2,6 91,5 2,3
42 19.1.2018 14:30 6 2,6 90,74 2,66
43 19.1.2018 14:00 8 2,6 89,67 3,2
44 19.1.2018 13:30 7 2 89,06 5,57
45 19.1.2018 13:00 10 1,8 94,43 5,64
46 19.1.2018 12:30 10 1 94,46 5,57
© 2011 Ministrstvo za kmetijstvo, gozdarstvo in prehrano. Vse pravice pridržane.